Location: Buchberg
(46.9333°N, 15.8500°E)
Time: 19:18:45
(UTC+00:00)

IRS-1D - Pass Details

Date: 14 July 2020
Orbit: 739 x 817 km, 98.6° (Epoch: 06 August)

Event Time Altitude Azimuth Distance (km) Brightness Sun altitude
Rises 00:38:43 0° 20° (NNE) 3,195 8.4 -18.1°
Reaches altitude 10° 00:41:10 10° 28° (NNE) 2,262 7.2 -17.9°
Maximum altitude 00:45:49 39° 98° (E) 1,095 4.4 -17.6°
Enters shadow 00:49:01 18° 159° (SSE) 1,749 5.0 -17.3°
